Time,TemperatureF,DewpointF,PressureIn,WindDirection,WindDirectionDegrees,WindSpeedMPH,WindSpeedGustMPH,Humidity,HourlyPrecipIn,Conditions,Clouds,dailyrainin,SoftwareType,DateUTC
2013-02-28 00:00:00,30.2,27.9,29.73,East,90,0.0,0.0,91,0.00,,,0.00,WUHU21623XXSP,2013-02-28 05:00:00,
2013-02-28 00:05:00,29.7,27.4,29.73,East,90,0.0,0.0,91,0.00,,,0.00,WUHU21623XXSP,2013-02-28 05:05:00,
2013-02-28 00:10:00,29.5,27.2,29.73,East,90,0.0,0.0,91,0.00,,,0.00,WUHU21623XXSP,2013-02-28 05:10:00,
2013-02-28 00:15:00,29.3,27.0,29.73,East,90,0.0,0.0,91,0.00,,,0.00,WUHU21623XXSP,2013-02-28 05:15:00,
2013-02-28 00:20:00,29.8,27.2,29.72,East,90,0.0,0.0,91,0.00,,,0.00,WUHU21623XXSP,2013-02-28 05:20:00,
2013-02-28 00:25:00,29.7,27.4,29.72,East,90,0.0,0.0,91,0.00,,,0.00,WUHU21623XXSP,2013-02-28 05:25:00,
2013-02-28 00:30:00,29.5,27.2,29.71,East,90,0.0,0.0,91,0.00,,,0.00,WUHU21623XXSP,2013-02-28 05:30:00,
2013-02-28 00:35:00,29.5,27.2,29.72,East,90,0.0,0.0,91,0.00,,,0.00,WUHU21623XXSP,2013-02-28 05:35:00,
2013-02-28 00:40:00,29.3,27.0,29.71,East,90,0.0,0.0,91,0.00,,,0.00,WUHU21623XXSP,2013-02-28 05:40:00,
2013-02-28 00:45:00,29.3,27.0,29.71,East,90,0.0,0.0,91,0.00,,,0.00,WUHU21623XXSP,2013-02-28 05:45:00,
2013-02-28 00:50:00,29.3,27.0,29.71,East,90,0.0,0.0,91,0.00,,,0.00,WUHU21623XXSP,2013-02-28 05:50:00,
2013-02-28 00:55:00,29.3,27.0,29.70,East,90,0.0,0.0,91,0.00,,,0.00,WUHU21623XXSP,2013-02-28 05:55:00,
2013-02-28 01:00:00,29.3,27.0,29.70,East,90,0.0,0.0,91,0.00,,,0.00,WUHU21623XXSP,2013-02-28 06:00:00,
2013-02-28 01:05:00,29.3,27.0,29.70,East,90,0.0,0.0,91,0.00,,,0.00,WUHU21623XXSP,2013-02-28 06:05:00,
2013-02-28 01:10:00,29.8,27.6,29.70,East,90,0.0,0.0,91,0.00,,,0.00,WUHU21623XXSP,2013-02-28 06:10:00,
2013-02-28 01:15:00,29.5,27.2,29.70,East,90,0.0,0.0,91,0.00,,,0.00,WUHU21623XXSP,2013-02-28 06:15:00,
2013-02-28 01:20:00,29.3,27.0,29.70,East,90,0.0,0.0,91,0.00,,,0.00,WUHU21623XXSP,2013-02-28 06:20:00,
2013-02-28 01:25:00,29.3,27.0,29.70,East,90,0.0,0.0,91,0.00,,,0.00,WUHU21623XXSP,2013-02-28 06:25:00,
2013-02-28 01:30:00,29.3,27.0,29.69,East,90,0.0,0.0,91,0.00,,,0.00,WUHU21623XXSP,2013-02-28 06:30:00,
2013-02-28 01:35:00,29.3,27.0,29.69,East,90,0.0,0.0,91,0.00,,,0.00,WUHU21623XXSP,2013-02-28 06:35:00,
2013-02-28 01:40:00,29.3,27.0,29.70,East,90,0.0,0.0,91,0.00,,,0.00,WUHU21623XXSP,2013-02-28 06:40:00,
2013-02-28 01:45:00,29.3,27.0,29.69,East,90,0.0,0.0,91,0.00,,,0.00,WUHU21623XXSP,2013-02-28 06:45:00,
2013-02-28 01:50:00,29.3,27.0,29.69,East,90,0.0,0.0,91,0.00,,,0.00,WUHU21623XXSP,2013-02-28 06:50:00,
2013-02-28 01:55:00,29.3,27.0,29.69,East,90,0.0,0.0,91,0.00,,,0.00,WUHU21623XXSP,2013-02-28 06:55:00,
2013-02-28 02:00:00,29.5,27.2,29.69,East,90,0.0,0.0,91,0.00,,,0.00,WUHU21623XXSP,2013-02-28 07:00:00,
2013-02-28 02:05:00,29.5,27.2,29.68,East,90,0.0,0.0,91,0.00,,,0.00,WUHU21623XXSP,2013-02-28 07:05:00,
2013-02-28 02:10:00,29.5,27.2,29.68,East,90,0.0,0.0,91,0.00,,,0.00,WUHU21623XXSP,2013-02-28 07:10:00,
2013-02-28 02:15:00,29.5,27.2,29.68,East,90,0.0,0.0,91,0.00,,,0.00,WUHU21623XXSP,2013-02-28 07:15:00,
2013-02-28 02:20:00,29.5,27.2,29.69,East,90,0.0,0.0,91,0.00,,,0.00,WUHU21623XXSP,2013-02-28 07:20:00,
2013-02-28 02:25:00,29.5,27.2,29.69,East,90,0.0,0.0,91,0.00,,,0.00,WUHU21623XXSP,2013-02-28 07:25:00,
2013-02-28 02:30:00,29.5,27.2,29.68,East,90,0.0,0.0,91,0.00,,,0.00,WUHU21623XXSP,2013-02-28 07:30:00,
2013-02-28 02:35:00,29.5,27.2,29.69,East,90,0.0,0.0,91,0.00,,,0.00,WUHU21623XXSP,2013-02-28 07:35:00,
2013-02-28 02:40:00,29.7,27.4,29.68,East,90,0.0,0.0,91,0.00,,,0.00,WUHU21623XXSP,2013-02-28 07:40:00,
2013-02-28 02:45:00,29.5,27.2,29.69,East,90,0.0,0.0,91,0.00,,,0.00,WUHU21623XXSP,2013-02-28 07:45:00,
2013-02-28 02:50:00,29.7,27.4,29.68,East,90,0.0,0.0,91,0.00,,,0.00,WUHU21623XXSP,2013-02-28 07:50:00,
2013-02-28 02:55:00,29.7,27.4,29.68,East,90,0.0,0.0,91,0.00,,,0.00,WUHU21623XXSP,2013-02-28 07:55:00,
2013-02-28 03:00:00,29.7,27.4,29.68,East,90,0.0,0.0,91,0.00,,,0.00,WUHU21623XXSP,2013-02-28 08:00:00,
2013-02-28 03:05:00,29.7,27.4,29.68,East,90,0.0,0.0,91,0.00,,,0.00,WUHU21623XXSP,2013-02-28 08:05:00,
2013-02-28 03:10:00,29.5,27.4,29.68,East,90,0.0,0.0,91,0.00,,,0.00,WUHU21623XXSP,2013-02-28 08:10:00,
2013-02-28 03:15:00,29.7,27.4,29.68,East,90,0.0,0.0,91,0.00,,,0.00,WUHU21623XXSP,2013-02-28 08:15:00,
2013-02-28 03:20:00,30.2,27.9,29.68,East,90,0.0,0.0,91,0.00,,,0.00,WUHU21623XXSP,2013-02-28 08:20:00,
2013-02-28 03:25:00,30.2,27.9,29.68,East,90,0.0,0.0,91,0.00,,,0.00,WUHU21623XXSP,2013-02-28 08:25:00,
2013-02-28 03:30:00,29.8,27.6,29.68,East,90,0.0,0.0,91,0.00,,,0.00,WUHU21623XXSP,2013-02-28 08:30:00,
2013-02-28 03:35:00,29.7,27.4,29.68,East,90,0.0,0.0,91,0.00,,,0.00,WUHU21623XXSP,2013-02-28 08:35:00,
2013-02-28 03:40:00,29.7,27.4,29.67,East,90,0.0,0.0,91,0.00,,,0.00,WUHU21623XXSP,2013-02-28 08:40:00,
2013-02-28 03:45:00,29.7,27.4,29.68,East,90,0.0,0.0,91,0.00,,,0.00,WUHU21623XXSP,2013-02-28 08:45:00,
2013-02-28 03:50:00,29.5,27.4,29.68,East,90,0.0,0.0,91,0.00,,,0.00,WUHU21623XXSP,2013-02-28 08:50:00,
2013-02-28 03:55:00,29.5,27.2,29.68,East,90,0.0,0.0,91,0.00,,,0.00,WUHU21623XXSP,2013-02-28 08:55:00,
2013-02-28 04:00:00,29.7,27.4,29.69,East,90,0.0,0.0,91,0.00,,,0.00,WUHU21623XXSP,2013-02-28 09:00:00,
2013-02-28 04:05:00,30.0,27.8,29.69,East,90,0.0,0.0,91,0.00,,,0.00,WUHU21623XXSP,2013-02-28 09:05:00,
2013-02-28 04:10:00,29.7,27.4,29.68,East,90,0.0,0.0,91,0.00,,,0.00,WUHU21623XXSP,2013-02-28 09:10:00,
2013-02-28 04:15:00,29.7,27.4,29.69,East,90,0.0,0.0,91,0.00,,,0.00,WUHU21623XXSP,2013-02-28 09:15:00,
2013-02-28 04:20:00,29.5,27.2,29.68,East,90,0.0,0.0,91,0.00,,,0.00,WUHU21623XXSP,2013-02-28 09:20:00,
2013-02-28 04:25:00,29.5,27.2,29.68,East,90,0.0,0.0,91,0.00,,,0.00,WUHU21623XXSP,2013-02-28 09:25:00,
2013-02-28 04:30:00,29.5,27.2,29.69,East,90,0.0,0.0,91,0.00,,,0.00,WUHU21623XXSP,2013-02-28 09:30:00,
2013-02-28 04:35:00,29.5,27.2,29.68,East,90,0.0,0.0,91,0.00,,,0.00,WUHU21623XXSP,2013-02-28 09:35:00,
2013-02-28 04:40:00,29.5,27.2,29.68,East,90,0.0,0.0,91,0.00,,,0.00,WUHU21623XXSP,2013-02-28 09:40:00,
2013-02-28 04:45:00,29.8,27.6,29.68,East,90,0.0,0.0,91,0.00,,,0.00,WUHU21623XXSP,2013-02-28 09:45:00,
2013-02-28 04:50:00,29.5,27.2,29.68,East,90,0.0,0.0,91,0.00,,,0.00,WUHU21623XXSP,2013-02-28 09:50:00,
2013-02-28 04:55:00,29.5,27.2,29.68,East,90,0.0,0.0,91,0.00,,,0.00,WUHU21623XXSP,2013-02-28 09:55:00,
2013-02-28 05:00:00,29.5,27.2,29.68,East,90,0.0,0.0,91,0.00,,,0.00,WUHU21623XXSP,2013-02-28 10:00:00,
2013-02-28 05:05:00,29.5,27.2,29.69,East,90,0.0,0.0,91,0.00,,,0.00,WUHU21623XXSP,2013-02-28 10:05:00,
2013-02-28 05:10:00,29.5,27.2,29.69,East,90,0.0,0.0,91,0.00,,,0.00,WUHU21623XXSP,2013-02-28 10:10:00,
2013-02-28 05:15:00,29.5,27.2,29.69,East,90,0.0,0.0,91,0.00,,,0.00,WUHU21623XXSP,2013-02-28 10:15:00,
2013-02-28 05:20:00,29.5,27.2,29.69,East,90,0.0,0.0,91,0.00,,,0.00,WUHU21623XXSP,2013-02-28 10:20:00,
2013-02-28 05:25:00,30.0,27.8,29.69,East,90,0.0,0.0,91,0.00,,,0.00,WUHU21623XXSP,2013-02-28 10:25:00,
2013-02-28 05:30:00,29.8,27.6,29.69,East,90,0.0,0.0,91,0.00,,,0.00,WUHU21623XXSP,2013-02-28 10:30:00,
2013-02-28 05:35:00,29.7,27.4,29.69,East,90,0.0,0.0,91,0.00,,,0.00,WUHU21623XXSP,2013-02-28 10:35:00,
2013-02-28 05:40:00,29.5,27.2,29.70,East,90,0.0,0.0,91,0.00,,,0.00,WUHU21623XXSP,2013-02-28 10:40:00,
2013-02-28 05:45:00,29.5,27.2,29.70,East,90,0.0,0.0,91,0.00,,,0.00,WUHU21623XXSP,2013-02-28 10:45:00,
2013-02-28 05:50:00,29.5,27.2,29.70,East,90,0.0,0.0,91,0.00,,,0.00,WUHU21623XXSP,2013-02-28 10:50:00,
2013-02-28 05:55:00,29.5,27.2,29.70,East,90,0.0,0.0,91,0.00,,,0.00,WUHU21623XXSP,2013-02-28 10:55:00,
2013-02-28 06:00:00,29.7,27.4,29.70,East,90,0.0,0.0,91,0.00,,,0.00,WUHU21623XXSP,2013-02-28 11:00:00,
2013-02-28 06:05:00,29.5,27.2,29.70,East,90,0.0,0.0,91,0.00,,,0.00,WUHU21623XXSP,2013-02-28 11:05:00,
2013-02-28 06:10:00,29.5,27.2,29.70,East,90,0.0,0.0,91,0.00,,,0.00,WUHU21623XXSP,2013-02-28 11:10:00,
2013-02-28 06:15:00,29.7,27.4,29.71,East,90,0.0,0.0,91,0.00,,,0.00,WUHU21623XXSP,2013-02-28 11:15:00,
2013-02-28 06:20:00,29.5,27.2,29.71,East,90,0.0,0.0,91,0.00,,,0.00,WUHU21623XXSP,2013-02-28 11:20:00,
2013-02-28 06:25:00,29.7,27.4,29.71,East,90,0.0,0.0,91,0.00,,,0.00,WUHU21623XXSP,2013-02-28 11:25:00,
2013-02-28 06:30:00,29.5,27.2,29.70,East,90,0.0,0.0,91,0.00,,,0.00,WUHU21623XXSP,2013-02-28 11:30:00,
2013-02-28 06:35:00,29.5,27.2,29.70,East,90,0.0,0.0,91,0.00,,,0.00,WUHU21623XXSP,2013-02-28 11:35:00,
2013-02-28 06:40:00,29.7,27.4,29.71,East,90,0.0,0.0,91,0.00,,,0.00,WUHU21623XXSP,2013-02-28 11:40:00,
2013-02-28 06:45:00,30.0,27.8,29.71,East,90,0.0,0.0,91,0.00,,,0.00,WUHU21623XXSP,2013-02-28 11:45:00,
2013-02-28 06:50:00,29.8,27.6,29.70,East,90,0.0,0.0,91,0.00,,,0.00,WUHU21623XXSP,2013-02-28 11:50:00,
2013-02-28 06:55:00,29.8,27.6,29.71,East,90,0.0,0.0,91,0.00,,,0.00,WUHU21623XXSP,2013-02-28 11:55:00,
2013-02-28 07:00:00,30.0,27.8,29.71,East,90,0.0,0.0,91,0.00,,,0.00,WUHU21623XXSP,2013-02-28 12:00:00,
2013-02-28 07:05:00,30.0,27.8,29.71,East,90,0.0,0.0,91,0.00,,,0.00,WUHU21623XXSP,2013-02-28 12:05:00,
2013-02-28 07:10:00,30.0,27.8,29.71,East,90,0.0,0.0,91,0.00,,,0.00,WUHU21623XXSP,2013-02-28 12:10:00,
2013-02-28 07:15:00,30.0,27.8,29.71,East,90,0.0,0.0,91,0.00,,,0.00,WUHU21623XXSP,2013-02-28 12:15:00,
2013-02-28 07:20:00,30.0,27.8,29.71,East,90,0.0,0.0,91,0.00,,,0.00,WUHU21623XXSP,2013-02-28 12:20:00,
2013-02-28 07:25:00,30.7,28.5,29.71,East,90,0.0,0.0,91,0.00,,,0.00,WUHU21623XXSP,2013-02-28 12:25:00,
2013-02-28 07:30:00,30.4,28.1,29.70,East,90,0.0,0.0,91,0.00,,,0.00,WUHU21623XXSP,2013-02-28 12:30:00,
2013-02-28 07:35:00,30.2,27.9,29.70,East,90,0.0,0.0,91,0.00,,,0.00,WUHU21623XXSP,2013-02-28 12:35:00,
2013-02-28 07:40:00,30.0,27.8,29.70,East,90,0.0,0.0,91,0.00,,,0.00,WUHU21623XXSP,2013-02-28 12:40:00,
2013-02-28 07:45:00,30.0,27.8,29.70,East,90,0.0,0.0,91,0.00,,,0.00,WUHU21623XXSP,2013-02-28 12:45:00,
2013-02-28 07:50:00,30.0,27.8,29.70,East,90,0.0,0.0,91,0.00,,,0.00,WUHU21623XXSP,2013-02-28 12:50:00,
2013-02-28 07:55:00,30.0,27.8,29.70,East,90,0.0,0.0,91,0.00,,,0.00,WUHU21623XXSP,2013-02-28 12:55:00,
2013-02-28 08:00:00,30.0,27.8,29.69,East,90,0.0,0.0,91,0.00,,,0.00,WUHU21623XXSP,2013-02-28 13:00:00,
2013-02-28 08:05:00,30.0,27.8,29.69,East,90,0.0,0.0,91,0.00,,,0.00,WUHU21623XXSP,2013-02-28 13:05:00,
2013-02-28 08:10:00,30.4,27.9,29.69,East,90,0.0,0.0,91,0.00,,,0.00,WUHU21623XXSP,2013-02-28 13:10:00,
2013-02-28 08:15:00,30.2,28.1,29.69,East,90,0.0,0.0,91,0.00,,,0.00,WUHU21623XXSP,2013-02-28 13:15:00,
2013-02-28 08:20:00,30.6,28.3,29.69,East,90,0.0,0.0,91,0.00,,,0.00,WUHU21623XXSP,2013-02-28 13:20:00,
2013-02-28 08:25:00,30.6,28.3,29.70,East,90,0.0,0.0,91,0.00,,,0.00,WUHU21623XXSP,2013-02-28 13:25:00,
2013-02-28 08:30:00,30.4,28.1,29.69,East,90,0.0,0.0,91,0.00,,,0.00,WUHU21623XXSP,2013-02-28 13:30:00,
2013-02-28 08:35:00,30.7,28.5,29.69,East,90,0.0,0.0,91,0.00,,,0.00,WUHU21623XXSP,2013-02-28 13:35:00,
2013-02-28 08:40:00,30.9,28.7,29.69,East,90,0.0,0.0,91,0.00,,,0.00,WUHU21623XXSP,2013-02-28 13:40:00,
2013-02-28 08:45:00,31.8,29.6,29.70,East,90,0.0,0.0,91,0.00,,,0.00,WUHU21623XXSP,2013-02-28 13:45:00,
2013-02-28 08:50:00,31.3,29.0,29.70,East,90,0.0,0.0,91,0.00,,,0.00,WUHU21623XXSP,2013-02-28 13:50:00,
2013-02-28 08:55:00,31.1,28.8,29.70,East,90,0.0,0.0,91,0.00,,,0.00,WUHU21623XXSP,2013-02-28 13:55:00,
2013-02-28 09:00:00,31.3,29.0,29.69,East,90,0.0,0.0,91,0.00,,,0.00,WUHU21623XXSP,2013-02-28 14:00:00,
2013-02-28 09:05:00,31.3,29.0,29.69,East,90,0.0,0.0,91,0.00,,,0.00,WUHU21623XXSP,2013-02-28 14:05:00,
2013-02-28 09:10:00,31.1,28.8,29.69,East,90,0.0,0.0,91,0.00,,,0.00,WUHU21623XXSP,2013-02-28 14:10:00,
2013-02-28 09:15:00,31.6,29.4,29.69,East,90,0.0,0.0,91,0.00,,,0.00,WUHU21623XXSP,2013-02-28 14:15:00,
2013-02-28 09:20:00,31.3,29.0,29.69,East,90,0.0,0.0,91,0.00,,,0.00,WUHU21623XXSP,2013-02-28 14:20:00,
2013-02-28 09:25:00,31.3,29.0,29.69,East,90,0.0,0.0,91,0.00,,,0.00,WUHU21623XXSP,2013-02-28 14:25:00,
2013-02-28 09:30:00,31.6,29.4,29.70,East,90,0.0,0.0,91,0.00,,,0.00,WUHU21623XXSP,2013-02-28 14:30:00,
2013-02-28 09:35:00,31.8,29.6,29.70,East,90,0.0,0.0,91,0.00,,,0.00,WUHU21623XXSP,2013-02-28 14:35:00,
2013-02-28 09:40:00,32.0,29.5,29.70,East,90,0.0,0.0,90,0.00,,,0.00,WUHU21623XXSP,2013-02-28 14:40:00,
2013-02-28 09:45:00,32.4,30.1,29.70,East,90,0.0,0.0,91,0.00,,,0.00,WUHU21623XXSP,2013-02-28 14:45:00,
2013-02-28 09:50:00,32.4,30.1,29.70,East,90,0.0,0.0,91,0.00,,,0.00,WUHU21623XXSP,2013-02-28 14:50:00,
2013-02-28 09:55:00,32.5,30.2,29.70,East,90,0.0,0.0,91,0.00,,,0.00,WUHU21623XXSP,2013-02-28 14:55:00,
2013-02-28 10:00:00,32.5,30.2,29.70,East,90,0.0,0.0,91,0.00,,,0.00,WUHU21623XXSP,2013-02-28 15:00:00,
2013-02-28 10:05:00,32.7,30.1,29.70,East,90,0.0,0.0,90,0.00,,,0.00,WUHU21623XXSP,2013-02-28 15:05:00,
2013-02-28 10:10:00,32.7,30.1,29.70,East,90,0.0,0.0,90,0.00,,,0.00,WUHU21623XXSP,2013-02-28 15:10:00,
2013-02-28 10:15:00,32.9,30.3,29.71,East,90,0.0,0.0,90,0.00,,,0.00,WUHU21623XXSP,2013-02-28 15:15:00,
2013-02-28 10:20:00,32.9,30.3,29.71,East,90,0.0,0.0,90,0.00,,,0.00,WUHU21623XXSP,2013-02-28 15:20:00,
2013-02-28 10:25:00,33.6,30.9,29.71,ESE,112,0.0,0.0,90,0.00,,,0.00,WUHU21623XXSP,2013-02-28 15:25:00,
2013-02-28 10:30:00,33.6,30.9,29.71,SE,135,0.0,0.0,90,0.00,,,0.00,WUHU21623XXSP,2013-02-28 15:30:00,
2013-02-28 10:35:00,33.6,30.6,29.70,SE,135,0.0,0.0,89,0.00,,,0.00,WUHU21623XXSP,2013-02-28 15:35:00,
2013-02-28 10:40:00,34.3,31.6,29.70,SE,135,0.0,0.0,90,0.00,,,0.00,WUHU21623XXSP,2013-02-28 15:40:00,
2013-02-28 10:45:00,34.3,31.6,29.70,SE,135,0.0,0.0,90,0.00,,,0.00,WUHU21623XXSP,2013-02-28 15:45:00,
2013-02-28 10:50:00,34.3,31.4,29.70,SE,135,0.0,0.0,89,0.00,,,0.00,WUHU21623XXSP,2013-02-28 15:50:00,
2013-02-28 10:55:00,34.3,31.4,29.70,SE,135,0.0,0.0,89,0.00,,,0.00,WUHU21623XXSP,2013-02-28 15:55:00,
2013-02-28 11:00:00,34.5,31.5,29.71,SE,135,0.0,0.0,89,0.02,,,0.00,WUHU21623XXSP,2013-02-28 16:00:00,
2013-02-28 11:05:00,34.7,31.7,29.71,SE,135,0.0,0.0,89,0.02,,,0.02,WUHU21623XXSP,2013-02-28 16:05:00,
2013-02-28 11:10:00,34.9,31.9,29.71,SE,135,0.0,0.0,89,0.02,,,0.02,WUHU21623XXSP,2013-02-28 16:10:00,
2013-02-28 11:15:00,34.9,31.9,29.71,SE,135,0.0,0.0,89,0.02,,,0.02,WUHU21623XXSP,2013-02-28 16:15:00,
2013-02-28 11:20:00,35.4,32.7,29.70,SE,135,0.0,0.0,90,0.02,,,0.02,WUHU21623XXSP,2013-02-28 16:20:00,
2013-02-28 11:25:00,35.8,33.1,29.70,SE,135,0.0,0.0,90,0.02,,,0.02,WUHU21623XXSP,2013-02-28 16:25:00,
2013-02-28 11:30:00,35.4,32.7,29.70,SE,135,0.0,0.0,90,0.02,,,0.02,WUHU21623XXSP,2013-02-28 16:30:00,
2013-02-28 11:35:00,35.4,32.4,29.70,SE,135,0.0,0.0,89,0.02,,,0.02,WUHU21623XXSP,2013-02-28 16:35:00,
2013-02-28 11:40:00,35.4,32.4,29.70,SE,135,0.0,0.0,89,0.02,,,0.02,WUHU21623XXSP,2013-02-28 16:40:00,
2013-02-28 11:45:00,35.4,32.4,29.70,SE,135,0.0,0.0,89,0.02,,,0.02,WUHU21623XXSP,2013-02-28 16:45:00,
2013-02-28 11:50:00,36.5,33.8,29.69,SE,135,0.0,0.0,90,0.02,,,0.02,WUHU21623XXSP,2013-02-28 16:50:00,
2013-02-28 11:55:00,35.8,32.8,29.69,SE,135,0.0,0.0,89,0.02,,,0.02,WUHU21623XXSP,2013-02-28 16:55:00,
2013-02-28 12:00:00,35.8,32.8,29.69,SE,135,0.0,0.0,89,0.00,,,0.02,WUHU21623XXSP,2013-02-28 17:00:00,
2013-02-28 12:05:00,35.4,32.4,29.69,SE,135,0.0,0.0,89,0.00,,,0.02,WUHU21623XXSP,2013-02-28 17:05:00,
2013-02-28 12:10:00,36.0,33.0,29.69,SE,135,0.0,0.0,89,0.00,,,0.02,WUHU21623XXSP,2013-02-28 17:10:00,
2013-02-28 12:15:00,35.8,32.8,29.69,SE,135,0.0,0.0,89,0.00,,,0.02,WUHU21623XXSP,2013-02-28 17:15:00,
2013-02-28 12:20:00,35.8,32.8,29.69,SE,135,0.0,0.0,89,0.00,,,0.02,WUHU21623XXSP,2013-02-28 17:20:00,
2013-02-28 12:25:00,35.8,32.8,29.68,SE,135,0.0,0.0,89,0.00,,,0.02,WUHU21623XXSP,2013-02-28 17:25:00,
2013-02-28 12:30:00,35.8,32.8,29.68,SE,135,0.0,0.0,89,0.00,,,0.02,WUHU21623XXSP,2013-02-28 17:30:00,
2013-02-28 12:35:00,35.8,32.8,29.68,SE,135,0.0,0.0,89,0.00,,,0.02,WUHU21623XXSP,2013-02-28 17:35:00,
2013-02-28 12:40:00,36.7,34.0,29.68,SE,135,0.0,0.0,90,0.00,,,0.02,WUHU21623XXSP,2013-02-28 17:40:00,
2013-02-28 12:45:00,36.1,33.2,29.67,SE,135,0.0,0.0,89,0.00,,,0.02,WUHU21623XXSP,2013-02-28 17:45:00,
2013-02-28 12:50:00,36.5,33.8,29.67,SE,135,0.0,0.0,90,0.00,,,0.02,WUHU21623XXSP,2013-02-28 17:50:00,
2013-02-28 12:55:00,36.1,33.2,29.67,SE,135,0.0,0.0,89,0.00,,,0.02,WUHU21623XXSP,2013-02-28 17:55:00,
2013-02-28 13:00:00,36.1,33.2,29.67,SE,135,0.0,0.0,89,0.00,,,0.02,WUHU21623XXSP,2013-02-28 18:00:00,
2013-02-28 13:05:00,37.2,34.2,29.67,SE,135,0.0,0.0,89,0.02,,,0.02,WUHU21623XXSP,2013-02-28 18:05:00,
2013-02-28 13:10:00,37.2,34.2,29.67,SE,135,0.0,0.0,89,0.02,,,0.04,WUHU21623XXSP,2013-02-28 18:10:00,
2013-02-28 13:15:00,37.6,34.6,29.66,SSE,157,0.0,0.0,89,0.02,,,0.04,WUHU21623XXSP,2013-02-28 18:15:00,
2013-02-28 13:20:00,37.6,34.3,29.66,SSE,157,0.0,0.0,88,0.02,,,0.04,WUHU21623XXSP,2013-02-28 18:20:00,
2013-02-28 13:25:00,37.9,34.5,29.66,SSE,157,0.0,0.0,88,0.04,,,0.06,WUHU21623XXSP,2013-02-28 18:25:00,
2013-02-28 13:30:00,37.9,34.7,29.66,SW,225,0.0,0.0,88,0.04,,,0.06,WUHU21623XXSP,2013-02-28 18:30:00,
2013-02-28 13:35:00,38.1,34.6,29.66,SW,225,0.0,0.0,87,0.04,,,0.06,WUHU21623XXSP,2013-02-28 18:35:00,
2013-02-28 13:40:00,38.1,34.6,29.66,SW,225,0.0,0.0,87,0.04,,,0.06,WUHU21623XXSP,2013-02-28 18:40:00,
2013-02-28 13:45:00,38.5,34.9,29.66,SW,225,0.0,0.0,87,0.06,,,0.08,WUHU21623XXSP,2013-02-28 18:45:00,
2013-02-28 13:50:00,38.5,34.9,29.66,SW,225,0.0,0.0,87,0.08,,,0.10,WUHU21623XXSP,2013-02-28 18:50:00,
2013-02-28 13:55:00,38.3,34.7,29.66,SW,225,0.0,0.0,87,0.08,,,0.10,WUHU21623XXSP,2013-02-28 18:55:00,
2013-02-28 14:00:00,38.5,34.9,29.66,NW,315,0.0,0.0,87,0.08,,,0.10,WUHU21623XXSP,2013-02-28 19:00:00,
2013-02-28 14:05:00,38.5,34.6,29.66,NW,315,0.0,2.2,86,0.08,,,0.12,WUHU21623XXSP,2013-02-28 19:05:00,
2013-02-28 14:10:00,38.3,34.4,29.66,West,270,0.0,2.2,86,0.10,,,0.14,WUHU21623XXSP,2013-02-28 19:10:00,
2013-02-28 14:15:00,38.5,34.6,29.66,West,270,0.0,0.0,86,0.10,,,0.14,WUHU21623XXSP,2013-02-28 19:15:00,
2013-02-28 14:20:00,38.1,34.0,29.66,West,270,0.0,0.0,85,0.08,,,0.14,WUHU21623XXSP,2013-02-28 19:20:00,
2013-02-28 14:25:00,37.9,34.1,29.66,West,270,0.0,0.9,86,0.10,,,0.16,WUHU21623XXSP,2013-02-28 19:25:00,
2013-02-28 14:30:00,37.6,33.7,29.66,West,270,0.0,0.9,86,0.10,,,0.16,WUHU21623XXSP,2013-02-28 19:30:00,
2013-02-28 14:35:00,37.8,33.9,29.66,West,270,0.0,0.0,86,0.12,,,0.18,WUHU21623XXSP,2013-02-28 19:35:00,
2013-02-28 14:40:00,37.6,33.7,29.66,West,270,0.0,0.0,86,0.10,,,0.18,WUHU21623XXSP,2013-02-28 19:40:00,
2013-02-28 14:45:00,37.8,33.9,29.66,West,270,0.0,0.0,86,0.08,,,0.18,WUHU21623XXSP,2013-02-28 19:45:00,
2013-02-28 14:50:00,37.9,34.4,29.66,West,270,0.0,0.0,87,0.10,,,0.20,WUHU21623XXSP,2013-02-28 19:50:00,
2013-02-28 14:55:00,38.1,34.3,29.66,West,270,0.0,0.0,86,0.10,,,0.20,WUHU21623XXSP,2013-02-28 19:55:00,
2013-02-28 15:00:00,38.7,34.8,29.66,West,270,0.0,0.0,86,0.10,,,0.22,WUHU21623XXSP,2013-02-28 20:00:00,
2013-02-28 15:05:00,39.0,34.9,29.65,West,270,0.0,0.0,85,0.08,,,0.22,WUHU21623XXSP,2013-02-28 20:05:00,
2013-02-28 15:10:00,39.0,34.6,29.65,West,270,0.0,0.0,84,0.08,,,0.22,WUHU21623XXSP,2013-02-28 20:10:00,
2013-02-28 15:15:00,39.0,34.6,29.65,West,270,0.0,0.0,84,0.10,,,0.24,WUHU21623XXSP,2013-02-28 20:15:00,
2013-02-28 15:20:00,39.4,35.2,29.65,West,270,0.0,0.0,85,0.12,,,0.26,WUHU21623XXSP,2013-02-28 20:20:00,
2013-02-28 15:25:00,39.0,34.6,29.65,West,270,0.0,0.0,84,0.10,,,0.26,WUHU21623XXSP,2013-02-28 20:25:00,
2013-02-28 15:30:00,38.8,34.4,29.65,West,270,0.0,0.0,84,0.08,,,0.26,WUHU21623XXSP,2013-02-28 20:30:00,
2013-02-28 15:35:00,38.3,34.2,29.65,West,270,0.0,0.0,85,0.10,,,0.28,WUHU21623XXSP,2013-02-28 20:35:00,
2013-02-28 15:40:00,38.1,33.7,29.65,West,270,0.0,0.0,84,0.12,,,0.30,WUHU21623XXSP,2013-02-28 20:40:00,
2013-02-28 15:45:00,37.9,33.5,29.65,West,270,0.0,0.0,84,0.12,,,0.30,WUHU21623XXSP,2013-02-28 20:45:00,
2013-02-28 15:50:00,38.1,34.0,29.66,West,270,0.0,0.0,85,0.10,,,0.30,WUHU21623XXSP,2013-02-28 20:50:00,
2013-02-28 15:55:00,38.1,33.7,29.65,West,270,0.0,0.0,84,0.10,,,0.30,WUHU21623XXSP,2013-02-28 20:55:00,
2013-02-28 16:00:00,38.8,34.7,29.65,West,270,0.0,0.0,85,0.08,,,0.30,WUHU21623XXSP,2013-02-28 21:00:00,
2013-02-28 16:05:00,39.0,34.6,29.64,West,270,0.0,0.0,84,0.10,,,0.33,WUHU21623XXSP,2013-02-28 21:05:00,
2013-02-28 16:10:00,39.0,34.6,29.65,West,270,0.0,0.0,84,0.12,,,0.35,WUHU21623XXSP,2013-02-28 21:10:00,
2013-02-28 16:15:00,38.8,34.4,29.64,West,270,0.0,0.0,84,0.10,,,0.35,WUHU21623XXSP,2013-02-28 21:15:00,
2013-02-28 16:20:00,38.8,34.1,29.64,West,270,0.0,1.6,83,0.08,,,0.35,WUHU21623XXSP,2013-02-28 21:20:00,
2013-02-28 16:25:00,38.5,33.8,29.65,West,270,0.0,1.6,83,0.08,,,0.35,WUHU21623XXSP,2013-02-28 21:25:00,
2013-02-28 16:30:00,37.9,33.5,29.65,West,270,0.0,0.0,84,0.08,,,0.35,WUHU21623XXSP,2013-02-28 21:30:00,
2013-02-28 16:35:00,37.6,33.4,29.65,West,270,0.0,0.0,85,0.08,,,0.37,WUHU21623XXSP,2013-02-28 21:35:00,
2013-02-28 16:40:00,37.4,33.3,29.65,West,270,0.0,0.0,85,0.06,,,0.37,WUHU21623XXSP,2013-02-28 21:40:00,
2013-02-28 16:45:00,37.4,33.3,29.65,West,270,0.0,0.0,85,0.08,,,0.39,WUHU21623XXSP,2013-02-28 21:45:00,
2013-02-28 16:50:00,37.0,32.9,29.65,West,270,0.0,0.0,85,0.08,,,0.39,WUHU21623XXSP,2013-02-28 21:50:00,
2013-02-28 16:55:00,36.9,33.0,29.65,West,270,0.0,0.0,86,0.08,,,0.39,WUHU21623XXSP,2013-02-28 21:55:00,
2013-02-28 17:00:00,36.7,32.8,29.65,West,270,0.0,0.0,86,0.06,,,0.39,WUHU21623XXSP,2013-02-28 22:00:00,
2013-02-28 17:05:00,36.7,32.8,29.65,West,270,0.0,0.0,86,0.06,,,0.39,WUHU21623XXSP,2013-02-28 22:05:00,
2013-02-28 17:10:00,36.5,32.6,29.65,West,270,0.0,0.0,86,0.04,,,0.39,WUHU21623XXSP,2013-02-28 22:10:00,
2013-02-28 17:15:00,36.5,32.6,29.65,West,270,0.0,0.0,86,0.04,,,0.39,WUHU21623XXSP,2013-02-28 22:15:00,
2013-02-28 17:20:00,36.5,32.6,29.65,West,270,0.0,0.0,86,0.04,,,0.39,WUHU21623XXSP,2013-02-28 22:20:00,
2013-02-28 17:25:00,36.3,32.8,29.65,West,270,0.0,0.0,87,0.06,,,0.41,WUHU21623XXSP,2013-02-28 22:25:00,
2013-02-28 17:30:00,36.1,32.6,29.65,West,270,0.0,0.0,87,0.06,,,0.41,WUHU21623XXSP,2013-02-28 22:30:00,
2013-02-28 17:35:00,36.0,32.4,29.65,West,270,0.0,0.0,87,0.04,,,0.41,WUHU21623XXSP,2013-02-28 22:35:00,
2013-02-28 17:40:00,35.6,32.0,29.66,West,270,0.0,0.0,87,0.04,,,0.41,WUHU21623XXSP,2013-02-28 22:40:00,
2013-02-28 17:45:00,35.8,32.2,29.65,West,270,0.0,0.0,87,0.02,,,0.41,WUHU21623XXSP,2013-02-28 22:45:00,
2013-02-28 17:50:00,35.8,32.2,29.65,West,270,0.0,0.0,87,0.04,,,0.43,WUHU21623XXSP,2013-02-28 22:50:00,
2013-02-28 17:55:00,36.0,32.4,29.66,West,270,0.0,0.0,87,0.04,,,0.43,WUHU21623XXSP,2013-02-28 22:55:00,
2013-02-28 18:00:00,36.1,32.6,29.65,West,270,0.0,0.0,87,0.04,,,0.43,WUHU21623XXSP,2013-02-28 23:00:00,
2013-02-28 18:05:00,36.3,32.8,29.66,West,270,0.0,0.0,87,0.04,,,0.43,WUHU21623XXSP,2013-02-28 23:05:00,
2013-02-28 18:10:00,36.1,32.6,29.66,West,270,0.0,0.0,87,0.04,,,0.43,WUHU21623XXSP,2013-02-28 23:10:00,
2013-02-28 18:15:00,36.0,32.4,29.66,West,270,0.0,0.0,87,0.04,,,0.43,WUHU21623XXSP,2013-02-28 23:15:00,
2013-02-28 18:20:00,36.0,32.4,29.66,West,270,0.0,0.0,87,0.04,,,0.43,WUHU21623XXSP,2013-02-28 23:20:00,
2013-02-28 18:25:00,36.1,32.6,29.66,West,270,0.0,0.0,87,0.02,,,0.43,WUHU21623XXSP,2013-02-28 23:25:00,
2013-02-28 18:30:00,35.8,32.2,29.66,West,270,0.0,0.0,87,0.02,,,0.43,WUHU21623XXSP,2013-02-28 23:30:00,
2013-02-28 18:35:00,35.8,32.2,29.66,West,270,0.0,0.0,87,0.02,,,0.43,WUHU21623XXSP,2013-02-28 23:35:00,
2013-02-28 18:40:00,35.4,31.9,29.66,West,270,0.0,0.0,87,0.02,,,0.43,WUHU21623XXSP,2013-02-28 23:40:00,
2013-02-28 18:45:00,35.4,31.9,29.66,West,270,0.0,0.0,87,0.00,,,0.43,WUHU21623XXSP,2013-02-28 23:45:00,
2013-02-28 18:50:00,35.4,32.1,29.66,West,270,0.0,0.0,88,0.02,,,0.45,WUHU21623XXSP,2013-02-28 23:50:00,
2013-02-28 18:55:00,35.4,32.1,29.66,West,270,0.0,0.0,88,0.02,,,0.45,WUHU21623XXSP,2013-02-28 23:55:00,
2013-02-28 19:00:00,35.4,31.9,29.66,West,270,0.0,0.0,87,0.02,,,0.45,WUHU21623XXSP,2013-03-01 00:00:00,
2013-02-28 19:05:00,35.2,31.7,29.66,West,270,0.0,0.0,87,0.02,,,0.45,WUHU21623XXSP,2013-03-01 00:05:00,
2013-02-28 19:10:00,35.2,32.0,29.66,West,270,0.0,0.0,88,0.02,,,0.45,WUHU21623XXSP,2013-03-01 00:10:00,
2013-02-28 19:15:00,34.9,31.6,29.66,West,270,0.0,0.0,88,0.02,,,0.45,WUHU21623XXSP,2013-03-01 00:15:00,
2013-02-28 19:20:00,34.9,31.6,29.66,West,270,0.0,0.0,88,0.04,,,0.47,WUHU21623XXSP,2013-03-01 00:20:00,
2013-02-28 19:25:00,35.1,31.8,29.66,West,270,0.0,0.0,88,0.04,,,0.47,WUHU21623XXSP,2013-03-01 00:25:00,
2013-02-28 19:30:00,34.7,31.4,29.66,West,270,0.0,0.0,88,0.04,,,0.47,WUHU21623XXSP,2013-03-01 00:30:00,
2013-02-28 19:35:00,34.3,31.1,29.65,West,270,0.0,0.0,88,0.04,,,0.47,WUHU21623XXSP,2013-03-01 00:35:00,
2013-02-28 19:40:00,34.5,31.2,29.65,West,270,0.0,0.0,88,0.04,,,0.47,WUHU21623XXSP,2013-03-01 00:40:00,
2013-02-28 19:45:00,34.5,31.2,29.66,West,270,0.0,0.0,88,0.02,,,0.47,WUHU21623XXSP,2013-03-01 00:45:00,
2013-02-28 19:50:00,34.5,31.2,29.65,West,270,0.0,0.0,88,0.02,,,0.47,WUHU21623XXSP,2013-03-01 00:50:00,
2013-02-28 19:55:00,34.9,31.6,29.65,West,270,0.0,0.0,88,0.02,,,0.47,WUHU21623XXSP,2013-03-01 00:55:00,
2013-02-28 20:00:00,34.9,31.6,29.66,West,270,0.0,0.0,88,0.02,,,0.47,WUHU21623XXSP,2013-03-01 01:00:00,
2013-02-28 20:05:00,35.4,32.1,29.66,West,270,0.0,0.0,88,0.02,,,0.47,WUHU21623XXSP,2013-03-01 01:05:00,
2013-02-28 20:10:00,35.4,32.1,29.65,West,270,0.0,0.0,88,0.02,,,0.47,WUHU21623XXSP,2013-03-01 01:10:00,
2013-02-28 20:15:00,35.4,32.1,29.65,West,270,0.0,0.0,88,0.02,,,0.47,WUHU21623XXSP,2013-03-01 01:15:00,
2013-02-28 20:20:00,35.8,32.5,29.66,West,270,0.0,0.0,88,0.00,,,0.47,WUHU21623XXSP,2013-03-01 01:20:00,
2013-02-28 20:25:00,35.2,32.0,29.66,West,270,0.0,0.0,88,0.00,,,0.47,WUHU21623XXSP,2013-03-01 01:25:00,
2013-02-28 20:30:00,34.9,31.6,29.66,West,270,0.0,0.0,88,0.00,,,0.47,WUHU21623XXSP,2013-03-01 01:30:00,
2013-02-28 20:35:00,34.7,31.4,29.65,West,270,0.0,0.0,88,0.00,,,0.47,WUHU21623XXSP,2013-03-01 01:35:00,
2013-02-28 20:41:00,34.5,31.2,29.65,West,270,0.0,0.0,88,0.00,,,0.47,WUHU21623XXSP,2013-03-01 01:41:00,
2013-02-28 20:45:00,34.5,31.2,29.65,WNW,292,0.0,0.0,88,0.00,,,0.47,WUHU21623XXSP,2013-03-01 01:45:00,
2013-02-28 20:51:00,34.5,31.2,29.65,WNW,292,0.0,0.0,88,0.00,,,0.47,WUHU21623XXSP,2013-03-01 01:51:00,
2013-02-28 20:56:00,34.5,31.5,29.65,WNW,292,0.0,0.0,89,0.02,,,0.49,WUHU21623XXSP,2013-03-01 01:56:00,
2013-02-28 21:01:00,34.7,31.7,29.65,WNW,292,0.0,0.0,89,0.02,,,0.49,WUHU21623XXSP,2013-03-01 02:01:00,
2013-02-28 21:06:00,34.9,31.9,29.65,WNW,292,0.0,0.0,89,0.02,,,0.49,WUHU21623XXSP,2013-03-01 02:06:00,
2013-02-28 21:11:00,35.2,32.3,29.65,WNW,292,0.0,0.0,89,0.02,,,0.49,WUHU21623XXSP,2013-03-01 02:11:00,
2013-02-28 21:16:00,35.1,32.1,29.65,NW,315,0.0,1.8,89,0.02,,,0.49,WUHU21623XXSP,2013-03-01 02:16:00,
2013-02-28 21:21:00,34.9,31.6,29.66,NW,315,0.0,1.8,88,0.02,,,0.49,WUHU21623XXSP,2013-03-01 02:21:00,
2013-02-28 21:26:00,34.9,31.6,29.65,NW,315,0.0,0.0,88,0.02,,,0.49,WUHU21623XXSP,2013-03-01 02:26:00,
2013-02-28 21:31:00,34.9,31.6,29.66,NW,315,0.0,0.0,88,0.02,,,0.49,WUHU21623XXSP,2013-03-01 02:31:00,
2013-02-28 21:36:00,34.9,31.6,29.66,NW,315,0.0,0.0,88,0.04,,,0.51,WUHU21623XXSP,2013-03-01 02:36:00,
2013-02-28 21:41:00,34.9,31.6,29.66,NW,315,0.0,0.0,88,0.04,,,0.51,WUHU21623XXSP,2013-03-01 02:41:00,
2013-02-28 21:46:00,35.2,32.0,29.66,NW,315,0.0,0.0,88,0.04,,,0.51,WUHU21623XXSP,2013-03-01 02:46:00,
2013-02-28 21:51:00,35.2,32.0,29.65,NW,315,0.0,0.0,88,0.04,,,0.51,WUHU21623XXSP,2013-03-01 02:51:00,
2013-02-28 21:56:00,34.9,31.6,29.65,WNW,292,0.0,0.0,88,0.02,,,0.51,WUHU21623XXSP,2013-03-01 02:56:00,
2013-02-28 22:01:00,34.9,31.6,29.65,WNW,292,0.0,0.0,88,0.02,,,0.51,WUHU21623XXSP,2013-03-01 03:01:00,
2013-02-28 22:06:00,34.9,31.6,29.65,WNW,292,0.0,0.0,88,0.02,,,0.51,WUHU21623XXSP,2013-03-01 03:06:00,
2013-02-28 22:11:00,34.9,31.6,29.65,WNW,292,0.0,0.0,88,0.02,,,0.51,WUHU21623XXSP,2013-03-01 03:11:00,
2013-02-28 22:16:00,35.4,32.4,29.65,WNW,292,0.0,0.0,89,0.02,,,0.51,WUHU21623XXSP,2013-03-01 03:16:00,
2013-02-28 22:21:00,35.2,32.0,29.65,WNW,292,0.0,0.0,88,0.02,,,0.51,WUHU21623XXSP,2013-03-01 03:21:00,
2013-02-28 22:26:00,35.2,32.0,29.65,WNW,292,0.0,0.0,88,0.02,,,0.51,WUHU21623XXSP,2013-03-01 03:26:00,
2013-02-28 22:31:00,35.2,32.0,29.65,WNW,292,0.0,0.0,88,0.00,,,0.51,WUHU21623XXSP,2013-03-01 03:31:00,
2013-02-28 22:36:00,35.2,32.0,29.65,WNW,292,0.0,2.7,88,0.00,,,0.51,WUHU21623XXSP,2013-03-01 03:36:00,
2013-02-28 22:41:00,35.2,32.0,29.65,NW,315,0.0,2.7,88,0.00,,,0.51,WUHU21623XXSP,2013-03-01 03:41:00,
2013-02-28 22:46:00,34.9,31.6,29.65,WNW,292,0.0,1.6,88,0.00,,,0.51,WUHU21623XXSP,2013-03-01 03:46:00,
2013-02-28 22:51:00,35.2,32.0,29.64,NW,315,0.0,1.6,88,0.02,,,0.53,WUHU21623XXSP,2013-03-01 03:51:00,
2013-02-28 22:56:00,34.9,31.6,29.65,NW,315,0.0,1.3,88,0.02,,,0.53,WUHU21623XXSP,2013-03-01 03:56:00,
2013-02-28 23:01:00,34.9,31.6,29.64,NW,315,0.0,0.0,88,0.02,,,0.53,WUHU21623XXSP,2013-03-01 04:01:00,
2013-02-28 23:06:00,34.9,31.6,29.65,NNW,337,0.0,1.8,88,0.02,,,0.53,WUHU21623XXSP,2013-03-01 04:06:00,
2013-02-28 23:11:00,34.9,31.6,29.64,NNW,337,0.0,1.8,88,0.02,,,0.53,WUHU21623XXSP,2013-03-01 04:11:00,
2013-02-28 23:16:00,35.4,32.1,29.65,NW,315,0.0,0.0,88,0.02,,,0.53,WUHU21623XXSP,2013-03-01 04:16:00,
2013-02-28 23:21:00,34.9,31.6,29.65,NW,315,0.0,0.0,88,0.02,,,0.53,WUHU21623XXSP,2013-03-01 04:21:00,
2013-02-28 23:26:00,34.7,31.4,29.64,WNW,292,0.0,0.0,88,0.04,,,0.55,WUHU21623XXSP,2013-03-01 04:26:00,
2013-02-28 23:31:00,35.4,32.4,29.65,WNW,292,0.0,1.3,89,0.04,,,0.55,WUHU21623XXSP,2013-03-01 04:31:00,
2013-02-28 23:36:00,35.2,32.0,29.64,WNW,292,0.0,1.8,88,0.04,,,0.55,WUHU21623XXSP,2013-03-01 04:36:00,
2013-02-28 23:41:00,35.4,32.1,29.64,WNW,292,0.0,1.8,88,0.04,,,0.55,WUHU21623XXSP,2013-03-01 04:41:00,
2013-02-28 23:46:00,34.9,31.6,29.64,West,270,0.0,2.5,88,0.04,,,0.55,WUHU21623XXSP,2013-03-01 04:46:00,
2013-02-28 23:51:00,34.7,31.4,29.63,West,270,0.0,2.5,88,0.02,,,0.55,WUHU21623XXSP,2013-03-01 04:51:00,
2013-02-28 23:56:00,34.7,31.4,29.64,West,270,0.0,0.4,88,0.02,,,0.55,WUHU21623XXSP,2013-03-01 04:56:00,
2013-02-28 23:57:00,34.5,31.2,29.64,West,270,0.0,0.0,88,0.02,,,0.55,WUHU21623XXSP,2013-03-01 04:57:00,